Regional Weather Roundup
Issued by NWS

Home | Current Version | Previous Version | Graphics & Text | Print | Product List | Glossary On
Versions: 1 2 3 4 5 6 7 8 9 10 11 12 13 14 15 16 17 18 19 20 21 22 23 24 25 26 27 28 29 30 31 32 33 34 35 36 37 38 39 40 41 42 43 44 45 46 47 48 49 50
266
ASUS45 KPSR 082010
RWRAZ

ARIZONA HOURLY REGIONAL WEATHER ROUNDUP
NATIONAL WEATHER SERVICE PHOENIX AZ
100 PM MST MON FEB 08 2016

NOTE: FAIR INDICATES FEW OR NO CLOUDS BELOW 12,000 FEET WITH NO
SIGNIFICANT WEATHER AND/OR OBSTRUCTIONS TO VISIBILITY.

AZZ001>003-036-082100-
NORTHWEST ARIZONA

CITY           SKY/WX    TMP DP  RH WIND       PRES   REMARKS
BULLHEAD CITY  SUNNY     68  23  18 N35G44    30.28F
KINGMAN        SUNNY     64  22  20 N15       30.36F
$$

AZZ004>008-015-016-018-082100-
NORTH CENTRAL ARIZONA

CITY           SKY/WX    TMP DP  RH WIND       PRES   REMARKS
GRAND CANYON   SUNNY     52  19  27 NE18      30.51F
WILLIAMS       SUNNY     57  21  24 NE15      30.51F
PRESCOTT       SUNNY     65  20  17 N14       30.37F
FLAGSTAFF      SUNNY     49  17  28 E20G25    30.47F
PAYSON         SUNNY     68  12  11 NE12      30.36F
PAGE           SUNNY     45  26  47 N6        30.53F
$$

AZZ009>014-017-082100-
NORTHEAST ARIZONA

CITY           SKY/WX    TMP DP  RH WIND       PRES   REMARKS
WINSLOW        SUNNY     53  18  25 NW5       30.48F
SAINT JOHNS    SUNNY     51  21  30 VRB7      30.45F
WINDOW ROCK    SUNNY     55   0  10 S5        30.43F
SHOW LOW       SUNNY     46  19  34 N8        30.46F
$$

AZZ023-082100-
GREATER PHOENIX AREA

CITY           SKY/WX    TMP DP  RH WIND       PRES   REMARKS
PHOENIX        MOSUNNY   78  19  11 E14       30.16F
BUCKEYE        SUNNY     75  28  17 SE10      30.19F
GLENDALE       MOSUNNY   75  23  14 CALM      30.19F
LUKE AFB       SUNNY     76  24  14 E1        30.16F
DEER VALLEY    SUNNY     79  20  11 CALM      30.16F
SCOTTSDALE     SUNNY     77  20  12 SE8       30.18F
MESA-FALCON    SUNNY    N/A N/A N/A NE23      30.16F
MESA-GATEWAY   MOSUNNY   73  19  13 VRB6      30.18
CHANDLER         N/A     77  19  11 VRB5      30.17
$$

AZZ027-028-082100-
SOUTHWEST MARICOPA COUNTY AND PINAL COUNTY

CITY           SKY/WX    TMP DP  RH WIND       PRES   REMARKS
CASA GRANDE    SUNNY     79  25  13 NE22      30.17F
GILA BEND      SUNNY     78  20  11 NE16      30.14F
$$

AZZ503-504-507>509-082100-
SOUTHEAST ARIZONA

CITY           SKY/WX    TMP DP  RH WIND       PRES   REMARKS
TUCSON         SUNNY     79  14   8 SE14      30.19F
DAVIS-MONTHAN  SUNNY     77  18  10 NE2       30.17F
RYAN FIELD     SUNNY     81  25  12 NE17G26   30.18F
NOGALES        SUNNY     75  12   9 W7        30.20F
SIERRA VISTA   SUNNY     68  12  11 E8        30.29F
DOUGLAS        SUNNY     70  17  13 E12G23    30.28F
SAFFORD        SUNNY     67  20  16 SE7       30.29F
$$

AZZ020-021-025-026-031-082100-
SOUTHWEST ARIZONA

CITY           SKY/WX    TMP DP  RH WIND       PRES   REMARKS
YUMA           MOSUNNY   78  21  12 N13G22    30.17F
$$

CAZ031-033-041-043-047-048-061-082100-
SOUTHERN CALIFORNIA

CITY           SKY/WX    TMP DP  RH WIND       PRES   REMARKS
DOWNTOWN L.A.  SUNNY     85  23  10 CALM      30.12F
L.A. AIRPORT   SUNNY     84  25  11 VRB3      30.12F
SAN DIEGO      SUNNY     80  21  11 NW8       30.12F
BURBANK        SUNNY     84  21  10 SE5       30.14F
ONTARIO        SUNNY     84  20   9 E13G24    30.14F
RIVERSIDE      SUNNY     80  21  11 NE10G28   30.18F
PALM SPRINGS   SUNNY     81  21  11 N8        30.25F
EL CENTRO NAS  MOSUNNY   79  21  11 N7G16     30.22F
IMPERIAL       SUNNY     80  26  13 VRB6      30.19F
BLYTHE         SUNNY     77  22  13 N16       30.23F
NEEDLES        SUNNY     73  23  15 N29G37    30.28F
$$

NVZ020-UTZ003-082100-
SOUTHERN NEVADA-UTAH

CITY           SKY/WX    TMP DP  RH WIND       PRES   REMARKS
LAS VEGAS      SUNNY     65  23  20 NE10      30.38F
SALT LAKE CITY NOT AVBL
$$

NMZ009-TXZ055-082100-
NEW MEXICO-WEST TEXAS

CITY           SKY/WX    TMP DP  RH WIND       PRES   REMARKS
ALBUQUERQUE    MOSUNNY   56  15  20 NW8       30.39F
EL PASO        MOSUNNY   56  16  20 NW3       30.38F
$$


........................KEY........................
SKY/WX - SKY CONDITION/WEATHER
TMP    - TEMPERATURE IN FAHRENHEIT
DP     - DEW POINT IN FAHRENHEIT
RH     - RELATIVE HUMIDITY IN PERCENT
WIND   - DIRECTION AND SPEED IN MILES PER HOUR (MPH)
VRB    - VARIABLE WIND DIRECTION
PRES   - MEAN SEA LEVEL PRESSURE IN INCHES OF MERCURY
         F - FALLING PRESSURE   R - RISING PRESSURE
         S - STEADY PRESSURE
VSB    - VISIBILITY IN MILES
HX     - HEAT INDEX IN FAHRENHEIT
WCI    - WIND CHILL INDEX IN FAHRENHEIT
TC     - TEMPERATURE IN CELSIUS WHICH IS ALSO KNOWN AS
         TEMPERATURE IN CENTIGRADE
AFB    - AIR FORCE BASE
         LUKE AFB IS LUKE AIR FORCE BASE
         DAVIS-MONTHAN IS DAVIS-MONTHAN AIR FORCE BASE
NAS    - NAVAL AIR STATION
         EL CENTRO NAS IS EL CENTRO NAVAL AIR STATION
N/A    - NOT AVAILABLE





USA.gov is the U.S. government's official web portal to all federal, state and local government web resources and services.